Wetbulb
62.22 62.08 61.45 60.82 60.30 60.08 60.34 59.93 59.06 58.05 57.66 57.29 56.80 56.14 54.62 53.67 52.90 52.01 51.94 52.47 51.81 51.78 52.40 53.12 53.95 54.61 53.22 49.31 46.90 52.05 57.57 56.78 52.88 50.37 48.22 47.05 45.42 45.66 43.06 44.59 44.90 43.01 44.07 45.41 46.00 45.33 45.00
58.58 60.89 61.15 60.68 60.43 60.31 60.44 59.98 59.13 58.11 57.45 56.98 56.70 55.96 54.86 53.55 52.93 51.98 51.64 52.08 51.76 51.59 52.30 53.06 54.11 54.05 51.81 43.44 52.13 53.98 52.37 50.95 50.69 49.77 48.76 48.44 46.45 46.64 43.74 43.92 43.60 45.27 44.90 44.49 45.00 44.95 45.65
57.39 57.73 58.80 60.38 59.94 59.97 59.80 59.39 59.01 58.22 57.53 57.11 56.70 55.71 54.98 53.63 52.75 51.90 51.48 51.26 51.29 51.69 52.18 53.57 54.17 52.21 48.18 46.21 52.41 52.85 51.93 50.53 51.13 50.25 47.61 49.56 49.08 45.76 46.25 43.67 46.91 45.56 41.53 43.49 45.19 45.79 44.29
55.53 56.11 56.21 56.95 58.40 58.86 58.92 58.76 58.58 58.42 57.60 57.07 56.69 55.50 54.54 53.69 52.48 51.54 51.07 50.87 51.10 51.17 53.26 53.89 53.57 50.89 45.47 51.87 53.33 51.35 52.31 50.60 51.77 51.39 50.40 50.67 50.01 46.76 45.00 46.68 44.62 42.16 42.98 39.43 44.53 45.37 45.63
54.51 54.09 54.27 55.86 56.32 56.38 57.76 58.24 58.26 58.32 58.04 56.98 56.64 55.46 53.97 53.02 51.94 51.08 50.85 50.58 50.72 52.28 53.88 53.64 51.28 51.23 45.88 52.12 47.45 50.82 50.69 48.24 49.71 50.67 50.97 50.30 48.06 44.96 45.68 41.88 40.08 42.61 37.89 40.08 41.04 45.41 44.07
53.86 53.71 53.47 53.99 54.30 55.16 56.24 56.93 57.74 57.74 57.58 56.90 56.38 55.30 53.82 52.27 50.63 49.89 50.20 50.20 51.46 52.40 53.33 53.33 51.65 45.11 49.03 46.05 48.70 49.12 50.57 49.60 47.97 48.72 47.50 46.59 44.76 42.40 43.18 41.10 34.87 38.13 37.74 38.81 38.46 42.83 43.59
52.31 52.75 54.12 53.54 53.50 53.61 54.13 55.50 55.26 56.90 57.02 56.84 56.32 55.04 53.29 51.83 49.67 47.85 47.52 49.27 47.56 48.73 48.91 46.72 47.79 46.47 47.32 48.83 49.28 47.17 49.37 48.48 48.28 46.17 41.40 45.87 41.37 38.99 42.02 43.67 42.54 40.35 38.32 37.77 41.04 44.28 42.29
51.55 51.15 51.51 52.04 52.96 53.31 53.25 53.71 54.06 54.42 56.64 56.68 55.90 54.74 53.26 51.25 48.99 47.54 46.77 43.74 45.11 45.28 40.75 48.91 49.80 49.78 49.09 48.10 43.82 46.58 49.72 44.10 44.70 40.79 44.66 43.02 38.63 43.40 44.93 42.56 40.69 39.80 38.38 38.34 42.12 44.26 42.20
51.53 51.13 50.70 51.18 51.54 52.04 52.94 53.17 53.45 53.52 54.77 56.12 55.36 54.29 52.48 50.27 47.93 45.48 45.23 46.03 48.75 48.57 39.98 46.40 50.97 50.03 48.63 46.96 42.95 43.70 47.47 45.63 42.63 41.30 42.17 40.10 42.56 45.06 42.43 41.07 39.03 39.78 38.98 39.14 39.07 41.19 42.11
50.96 51.20 51.47 50.98 51.43 51.96 52.56 53.46 52.67 52.64 53.23 54.95 54.66 53.53 51.26 48.70 44.03 48.28 45.84 50.60 49.92 51.33 38.01 44.07 45.78 46.34 47.97 45.65 41.99 46.81 49.01 45.95 43.62 40.48 42.04 41.54 44.80 43.13 41.81 39.91 40.68 36.67 42.94 41.29 39.46 37.90 32.78
51.21 51.36 51.02 51.74 52.24 52.82 52.99 53.40 52.90 51.94 52.57 53.27 54.10 52.43 49.16 49.02 48.61 46.99 48.15 50.06 50.18 49.85 27.92 44.92 43.09 48.95 46.36 42.08 43.94 44.04 48.84 46.02 40.17 41.51 42.03 39.07 41.61 40.48 38.55 39.50 42.79 39.74 43.13 41.15 40.23 37.82 37.47
50.79 50.74 50.91 51.19 51.53 52.33 52.49 52.97 52.20 51.50 51.74 52.76 53.37 51.90 48.75 47.07 46.51 46.68 49.02 48.83 49.92 37.06 27.65 40.52 42.79 40.96 40.89 41.99 42.72 44.96 44.19 46.63 46.74 42.34 42.92 41.95 45.60 43.70 41.96 43.41 43.74 44.05 41.18 41.10 41.16 39.39 32.13
50.20 50.47 50.66 50.77 51.19 51.72 52.24 52.79 52.23 51.26 50.89 52.16 52.73 51.31 48.83 48.07 42.79 48.03 49.50 44.69 33.47 28.90 42.78 39.06 39.22 40.33 39.43 39.22 39.75 41.37 40.46 39.81 37.25 35.13 35.94 40.06 40.77 43.31 44.42 40.21 43.44 41.94 38.54 31.00 29.45 30.98 30.36
49.86 50.56 50.41 50.73 50.86 51.50 51.64 52.06 52.23 51.62 50.85 51.36 52.54 49.27 49.12 48.51 47.85 48.37 46.72 37.04 27.83 37.56 39.17 43.16 41.16 40.35 36.36 38.94 39.63 40.41 38.40 36.92 41.67 40.60 36.53 33.91 33.85 41.56 44.25 41.12 39.21 40.06 38.52 31.04 23.55 25.76 30.20
49.58 49.80 49.84 50.16 50.53 51.02 51.16 51.48 51.44 51.83 50.66 51.55 49.60 46.79 45.16 47.17 49.51 48.57 40.77 31.71 32.12 38.01 42.64 41.45 42.47 37.47 36.92 38.97 39.18 39.31 38.28 37.43 40.35 42.36 34.37 34.82 34.92 43.55 44.33 44.03 41.91 39.22 35.77 41.28 34.19 34.78 30.31
48.06 48.90 49.32 49.39 49.93 50.05 50.52 50.90 51.03 51.52 50.71 49.67 45.39 43.37 41.88 48.46 49.97 44.78 36.07 32.63 36.31 42.90 43.59 42.52 36.10 38.30 34.29 37.09 35.61 36.62 36.89 40.47 39.36 42.60 42.12 38.65 31.41 40.40 42.45 43.31 42.88 40.54 42.74 33.94 35.60 25.29 24.24
47.95 48.19 48.37 48.64 48.72 49.33 49.89 50.59 50.56 51.18 50.80 49.55 43.35 39.01 43.58 48.34 46.44 38.29 30.50 34.52 39.46 43.37 43.64 39.74 37.18 35.23 36.48 35.12 36.97 34.45 35.88 40.08 41.70 40.84 41.32 39.69 34.56 36.50 40.66 38.09 36.90 38.74 37.18 38.14 37.00 34.34 27.13
47.35 47.25 47.23 47.51 48.29 48.78 49.44 50.28 50.28 50.78 49.94 47.44 42.38 35.17 44.09 45.75 33.08 34.92 33.67 37.41 40.90 41.37 44.24 42.23 40.81 39.01 36.12 36.30 35.41 34.40 33.10 37.03 42.91 41.64 36.55 39.67 37.00 30.87 35.74 42.70 43.64 41.07 38.54 37.07 30.04 28.78 32.54
46.59 46.62 47.14 47.59 47.94 48.59 49.05 49.20 49.54 49.97 49.42 44.66 38.60 34.80 43.93 43.32 29.85 32.23 36.93 36.98 39.46 39.27 40.94 39.79 38.21 39.23 39.40 36.80 32.02 37.05 37.71 41.85 41.65 39.40 37.49 39.73 33.96 28.96 33.78 38.47 40.46 37.93 38.61 37.23 35.83 34.06 28.36
46.13 45.92 46.53 46.95 47.39 48.03 48.31 48.78 48.90 49.36 49.33 46.53 36.25 30.17 33.35 37.10 38.07 36.50 35.09 35.21 35.09 41.24 40.71 41.38 39.06 40.43 36.78 33.56 36.63 33.68 35.38 39.50 40.48 39.10 40.06 40.21 35.79 32.85 29.22 33.21 36.63 33.54 34.69 35.63 33.94 29.47 30.70
45.57 45.73 46.04 46.13 46.35 46.82 47.67 48.22 48.61 48.96 49.03 44.84 39.26 34.62 37.46 28.03 30.16 34.00 37.09 36.66 34.08 34.60 40.36 41.63 38.11 37.96 35.66 31.62 33.29 32.36 35.91 37.29 38.83 40.20 37.08 37.59 32.25 34.55 35.51 36.42 37.01 34.42 32.21 33.14 31.05 32.19 29.81
45.13 45.28 45.31 45.70 46.17 46.29 47.18 47.52 48.35 48.43 48.72 42.99 34.05 37.52 39.74 37.08 36.60 32.56 35.16 36.13 35.46 36.90 38.47 37.01 36.03 37.49 37.76 33.24 33.78 31.65 34.80 35.58 34.49 37.57 35.60 38.60 33.11 32.84 30.80 35.17 36.15 33.71 32.66 32.30 33.14 31.65 30.41
44.83 45.15 45.14 45.21 45.84 46.45 46.93 47.19 47.67 48.30 47.69 40.76 42.88 44.61 42.00 38.70 36.82 33.29 32.83 36.02 37.19 39.39 39.90 40.92 39.33 37.63 35.40 36.45 38.55 39.67 40.54 40.64 39.37 37.00 36.01 37.08 34.34 31.88 28.23 36.25 34.38 29.60 32.30 32.15 33.52 35.02 33.85
44.75 44.92 45.04 45.38 45.78 46.39 46.60 47.23 47.50 47.82 47.73 45.42 43.74 44.19 39.03 34.37 37.26 35.55 36.25 37.62 38.38 39.20 37.70 40.26 40.48 37.03 38.96 43.33 41.80 40.27 39.50 38.63 38.49 37.91 40.18 35.96 34.17 32.73 29.36 33.45 24.35 30.93 37.80 37.02 34.92 34.84 35.17
44.13 44.25 44.94 45.37 46.17 46.67 46.68 47.00 47.22 47.37 47.82 45.89 45.63 44.12 41.38 34.97 38.46 37.99 37.15 37.64 39.48 40.96 39.23 39.11 39.69 41.06 43.49 39.71 33.29 29.77 30.28 31.34 32.95 36.06 36.35 37.61 35.07 30.00 27.17 28.67 29.43 31.33 34.88 34.79 33.02 31.63 35.97
43.74 43.93 44.87 45.67 45.80 45.53 45.82 46.29 46.68 47.20 47.64 46.95 45.36 48.30 43.97 38.63 37.12 40.56 37.97 38.66 37.52 37.54 35.62 37.54 41.96 44.81 42.18 36.20 32.32 25.59 24.48 28.72 28.43 31.98 36.72 37.15 38.41 32.28 30.71 25.59 23.09 30.83 36.32 38.61 38.00 28.39 36.31
43.11 44.19 44.98 44.97 45.30 45.46 45.51 45.77 46.23 46.96 47.10 46.28 44.68 47.82 45.04 38.47 42.23 42.96 38.81 38.46 41.77 39.37 35.72 37.96 37.45 38.06 41.61 33.79 29.13 28.07 28.86 35.20 29.37 29.30 30.45 32.13 32.39 28.60 29.25 26.74 28.74 33.16 35.05 37.16 26.58 28.50 36.49
43.57 44.54 45.29 46.58 47.02 47.77 47.96 47.35 45.92 46.30 46.89 45.93 43.87 48.43 46.06 40.55 43.50 45.25 45.04 41.13 40.91 39.95 34.19 36.64 35.17 36.50 35.29 31.18 30.30 31.40 32.27 34.77 33.86 35.68 33.18 31.32 29.24 29.19 30.56 27.10 24.47 34.35 33.62 30.17 33.73 36.70 36.24
42.59 43.53 45.94 46.14 46.83 47.53 47.76 48.02 48.27 47.20 46.83 47.06 42.62 47.09 48.78 44.90 40.37 46.39 46.85 48.64 46.34 44.38 39.66 38.49 37.25 35.61 36.77 33.70 35.31 36.03 34.11 37.06 34.32 30.50 38.35 30.70 34.48 31.93 29.55 28.22 32.51 34.34 35.48 37.58 37.51 35.53 34.59
MSLP
1016.74 1016.93 1017.25 1017.53 1017.84 1018.17 1018.28 1018.49 1018.73 1019.24 1019.73 1019.94 1020.01 1020.47 1020.53 1020.71 1020.68 1020.42 1020.27 1020.49 1020.41 1019.84 1019.29 1018.75 1018.38 1017.85 1016.67 1014.81 1012.93 1013.79 1014.10 1013.92 1013.36 1012.54 1012.01 1011.71 1011.28 1010.54 1010.00 1009.23 1008.87 1008.40 1008.11 1007.78 1007.69 1007.93 1008.05
1016.82 1016.54 1016.70 1016.92 1017.15 1017.62 1017.91 1017.99 1018.20 1019.07 1019.05 1019.51 1019.83 1019.99 1020.34 1020.41 1020.57 1020.29 1020.19 1020.17 1020.17 1019.92 1019.30 1018.73 1018.16 1018.09 1016.48 1014.06 1012.46 1012.71 1013.14 1013.14 1012.68 1012.37 1011.96 1011.70 1011.53 1011.49 1010.91 1009.98 1009.36 1008.64 1008.47 1008.19 1007.86 1007.66 1007.50
1016.68 1016.78 1016.63 1016.36 1016.64 1017.06 1017.29 1017.59 1017.88 1018.35 1018.65 1019.02 1019.45 1019.73 1019.99 1020.31 1020.31 1020.27 1020.29 1020.01 1019.83 1019.51 1019.11 1018.61 1018.09 1017.69 1015.55 1013.14 1012.40 1012.53 1012.98 1012.78 1012.82 1012.77 1012.33 1011.99 1011.93 1011.91 1010.95 1010.06 1009.11 1008.98 1008.77 1007.88 1006.63 1006.40 1006.73
1016.75 1016.76 1016.71 1016.74 1016.51 1016.61 1016.82 1017.15 1017.32 1017.59 1018.18 1018.50 1019.00 1019.41 1019.64 1020.01 1020.32 1020.24 1020.24 1019.67 1019.42 1019.16 1018.56 1018.29 1018.09 1017.23 1014.29 1012.55 1012.55 1012.65 1012.53 1012.31 1012.25 1012.65 1012.47 1012.36 1012.26 1012.02 1011.39 1010.50 1009.56 1009.00 1008.27 1006.98 1005.55 1005.55 1005.75
1016.61 1016.71 1016.80 1016.78 1016.74 1016.69 1016.71 1016.90 1016.99 1017.20 1017.59 1018.02 1018.50 1018.83 1019.37 1019.77 1020.21 1020.23 1019.97 1019.45 1018.91 1018.57 1018.19 1018.06 1017.70 1016.28 1013.52 1013.28 1012.72 1012.43 1012.68 1012.38 1012.17 1012.32 1012.39 1012.41 1012.43 1011.71 1010.66 1010.16 1009.12 1007.16 1006.91 1005.95 1005.29 1005.38 1005.68
1016.64 1016.67 1016.66 1016.71 1016.82 1016.92 1016.76 1016.75 1016.83 1016.93 1017.20 1017.53 1018.04 1018.53 1019.06 1019.57 1020.03 1020.24 1019.73 1018.97 1018.22 1018.34 1017.30 1017.05 1016.21 1015.43 1013.03 1012.22 1011.87 1012.43 1012.59 1012.78 1012.32 1011.89 1011.98 1012.15 1011.87 1010.87 1009.81 1009.07 1008.01 1007.14 1007.11 1006.58 1006.06 1005.71 1005.59
1016.25 1016.68 1016.53 1016.47 1016.75 1016.84 1016.83 1016.83 1016.62 1016.76 1016.92 1017.15 1017.78 1018.35 1019.00 1019.54 1019.88 1020.16 1019.97 1018.03 1018.19 1017.59 1016.44 1014.89 1013.59 1013.05 1011.73 1011.77 1012.27 1012.35 1012.21 1012.38 1012.21 1011.97 1011.14 1010.65 1010.63 1009.38 1008.32 1007.64 1007.93 1008.24 1007.93 1007.21 1006.57 1005.99 1005.69
1016.23 1016.37 1016.53 1016.59 1016.53 1016.49 1016.72 1016.81 1016.88 1016.76 1016.54 1016.78 1017.23 1018.24 1018.75 1019.55 1020.03 1020.17 1020.27 1019.03 1018.41 1018.77 1016.47 1014.53 1013.00 1012.11 1011.70 1011.88 1011.49 1011.08 1011.85 1012.55 1011.51 1011.33 1010.09 1009.94 1009.45 1008.77 1008.15 1008.45 1008.55 1008.50 1008.07 1007.32 1006.45 1005.89 1005.99
1015.95 1016.18 1016.26 1016.41 1016.31 1016.51 1016.47 1016.78 1016.86 1016.83 1016.67 1016.76 1017.02 1017.81 1018.79 1019.43 1020.07 1020.29 1019.43 1018.43 1018.51 1018.07 1016.59 1013.06 1011.73 1010.52 1010.86 1011.85 1011.33 1010.66 1010.89 1011.52 1011.41 1010.69 1009.94 1008.90 1008.11 1008.33 1008.67 1008.64 1008.44 1008.08 1007.58 1007.19 1006.87 1006.66 1006.63
1015.75 1015.81 1016.01 1016.22 1016.21 1016.36 1016.45 1016.49 1016.91 1016.91 1016.85 1016.96 1017.12 1017.66 1018.63 1019.64 1020.33 1018.87 1018.37 1017.68 1018.36 1018.39 1016.36 1011.71 1010.19 1010.08 1010.46 1011.44 1010.99 1010.69 1010.64 1011.35 1011.02 1010.32 1009.73 1008.44 1007.80 1007.75 1008.01 1008.33 1008.46 1007.93 1007.63 1007.33 1007.46 1007.25 1006.51
1015.30 1015.50 1015.57 1015.81 1016.11 1016.12 1016.31 1016.48 1016.68 1017.02 1016.98 1017.09 1017.16 1017.93 1018.41 1018.47 1018.74 1018.21 1018.35 1018.29 1018.53 1018.25 1015.57 1010.45 1010.42 1010.50 1011.17 1011.94 1011.08 1010.62 1010.83 1011.55 1011.36 1010.40 1010.21 1008.61 1007.70 1008.01 1008.11 1008.02 1008.01 1007.91 1008.12 1008.10 1007.87 1007.42 1006.95
1014.68 1015.12 1015.32 1015.38 1015.67 1015.88 1016.01 1016.21 1016.39 1016.79 1017.00 1017.13 1017.40 1017.81 1018.41 1019.07 1018.95 1018.89 1018.81 1018.54 1019.13 1018.10 1013.95 1011.06 1010.41 1010.95 1011.25 1011.61 1011.25 1011.46 1011.85 1012.01 1011.03 1011.09 1009.95 1008.71 1008.14 1007.88 1008.07 1008.00 1008.05 1008.51 1008.56 1008.03 1007.22 1006.51 1006.35
1014.29 1014.49 1014.77 1015.05 1015.22 1015.53 1015.73 1016.03 1016.28 1016.57 1016.93 1016.97 1016.89 1017.80 1018.40 1018.49 1018.99 1018.84 1019.15 1019.72 1019.73 1016.77 1012.07 1010.61 1010.23 1010.54 1010.96 1011.05 1011.47 1011.41 1011.58 1011.72 1011.09 1010.38 1009.71 1008.51 1007.44 1007.36 1007.76 1008.33 1008.04 1008.22 1008.30 1007.73 1006.75 1006.21 1005.99
1013.74 1014.01 1014.27 1014.55 1014.85 1015.10 1015.47 1015.81 1016.17 1016.50 1016.63 1016.77 1016.68 1017.55 1018.47 1018.73 1018.67 1019.09 1019.54 1020.07 1018.03 1013.77 1011.81 1010.67 1010.23 1010.29 1010.57 1010.91 1011.05 1011.38 1011.36 1010.76 1010.66 1010.18 1009.78 1008.67 1006.71 1006.31 1007.11 1008.09 1007.52 1007.55 1007.94 1008.41 1007.60 1007.51 1007.39
1013.17 1013.49 1013.80 1013.96 1014.31 1014.69 1015.10 1015.47 1015.87 1016.17 1016.53 1016.88 1017.41 1018.29 1018.79 1019.04 1019.09 1019.37 1019.44 1019.08 1015.65 1012.97 1011.24 1010.59 1010.37 1010.25 1010.32 1010.81 1010.96 1011.04 1011.03 1010.50 1009.97 1010.03 1010.40 1009.69 1008.03 1007.00 1007.19 1007.95 1008.31 1007.83 1007.64 1008.21 1008.70 1009.08 1009.14
1012.62 1012.83 1013.17 1013.44 1013.73 1014.23 1014.69 1015.08 1015.47 1015.74 1016.25 1017.10 1017.83 1018.54 1019.14 1019.25 1019.35 1019.66 1019.65 1017.04 1014.86 1013.10 1012.22 1011.53 1010.47 1010.21 1010.59 1010.80 1011.53 1011.63 1011.11 1009.63 1010.01 1010.10 1011.38 1011.33 1010.84 1008.68 1007.80 1008.18 1008.14 1008.11 1008.04 1008.46 1009.43 1009.93 1009.53
1011.90 1012.22 1012.54 1012.78 1013.25 1013.68 1014.09 1014.72 1015.03 1015.44 1016.00 1016.75 1018.04 1018.71 1019.20 1019.23 1019.61 1019.89 1018.00 1015.61 1013.98 1013.09 1012.67 1012.15 1011.51 1011.36 1011.72 1012.23 1011.95 1012.31 1011.26 1010.15 1010.73 1011.20 1012.23 1012.31 1012.71 1009.74 1008.60 1008.25 1007.51 1008.10 1008.30 1009.04 1010.12 1010.95 1011.29
1011.03 1011.42 1011.79 1012.13 1012.55 1013.06 1013.46 1014.10 1014.74 1015.04 1015.81 1016.61 1017.28 1018.25 1019.19 1019.06 1019.72 1018.50 1016.56 1015.02 1014.19 1012.88 1012.21 1011.85 1011.55 1011.67 1012.43 1013.31 1013.52 1013.04 1012.27 1012.43 1011.56 1012.02 1012.75 1013.04 1012.67 1011.59 1009.49 1007.94 1007.84 1008.03 1008.52 1009.78 1010.99 1011.53 1012.64
1009.92 1010.29 1010.82 1011.32 1011.71 1012.22 1012.77 1013.45 1014.04 1014.54 1015.29 1016.01 1016.93 1018.35 1019.12 1018.49 1017.98 1016.69 1015.45 1014.55 1013.97 1013.21 1011.94 1011.82 1011.60 1012.14 1012.91 1013.35 1014.07 1013.57 1013.05 1012.32 1012.23 1013.18 1013.63 1013.59 1013.58 1012.39 1009.80 1009.30 1009.25 1009.00 1009.89 1011.19 1012.29 1013.00 1013.55
1008.79 1009.14 1009.65 1010.35 1010.85 1011.39 1011.84 1012.57 1013.22 1013.77 1014.58 1015.31 1016.48 1017.53 1018.54 1017.95 1016.76 1015.62 1014.71 1014.06 1013.35 1012.98 1012.05 1011.60 1011.62 1012.17 1013.31 1013.68 1013.87 1014.07 1013.79 1013.15 1013.09 1013.96 1014.38 1014.67 1014.10 1013.24 1012.24 1011.76 1011.37 1011.00 1011.50 1012.34 1013.11 1013.67 1013.66
1007.55 1008.04 1008.42 1009.12 1009.64 1010.33 1010.93 1011.50 1012.15 1012.90 1013.64 1014.76 1014.87 1014.60 1014.18 1015.67 1015.59 1015.35 1014.31 1013.05 1012.57 1012.18 1011.83 1011.52 1011.61 1011.83 1012.95 1013.23 1013.29 1013.37 1013.57 1013.59 1013.32 1013.59 1014.48 1015.07 1014.37 1013.99 1013.37 1012.89 1012.18 1012.23 1012.95 1013.37 1013.68 1014.00 1014.35
1006.29 1006.64 1006.99 1007.60 1008.19 1009.03 1009.66 1010.46 1010.95 1011.84 1012.80 1013.89 1013.25 1012.01 1012.14 1012.63 1013.75 1014.81 1013.80 1012.05 1011.44 1011.38 1011.16 1010.90 1011.18 1011.86 1012.19 1012.30 1012.53 1012.91 1013.17 1013.45 1012.79 1013.32 1013.93 1014.35 1014.25 1014.59 1014.11 1012.96 1012.49 1012.59 1013.45 1014.05 1014.03 1014.29 1014.83
1004.79 1005.05 1005.48 1006.09 1006.62 1007.22 1008.00 1008.83 1009.63 1010.45 1011.64 1011.41 1011.86 1011.05 1010.27 1010.43 1011.14 1012.15 1011.47 1011.13 1010.56 1010.56 1011.02 1010.62 1011.32 1011.72 1011.72 1012.03 1012.66 1012.82 1012.68 1012.75 1012.33 1012.39 1013.23 1013.62 1014.05 1014.66 1013.35 1011.93 1012.21 1012.87 1012.70 1013.40 1013.59 1013.72 1014.13
1003.29 1003.59 1003.82 1004.29 1004.73 1005.23 1005.98 1006.86 1007.82 1008.73 1009.50 1009.91 1010.40 1010.23 1009.88 1008.95 1009.01 1009.16 1010.15 1010.51 1009.91 1009.82 1010.27 1010.39 1010.96 1011.55 1012.11 1012.81 1013.27 1013.00 1012.47 1012.52 1012.49 1012.31 1012.41 1012.98 1013.91 1014.65 1013.36 1012.90 1012.71 1012.95 1012.69 1012.91 1012.99 1013.59 1014.23
1001.63 1001.83 1001.91 1002.04 1002.32 1002.75 1003.64 1004.77 1005.77 1006.81 1007.83 1008.93 1009.30 1008.89 1007.77 1007.97 1007.89 1007.71 1008.57 1009.01 1009.53 1009.36 1009.96 1010.30 1010.95 1011.98 1012.98 1013.03 1013.24 1012.99 1012.83 1012.74 1012.19 1012.27 1012.33 1012.73 1013.73 1014.17 1013.55 1012.67 1013.24 1013.03 1012.82 1012.86 1012.98 1013.83 1014.45
999.91 999.88 999.73 999.61 999.89 1000.43 1001.17 1002.10 1003.29 1004.55 1006.08 1007.66 1007.99 1007.98 1007.88 1007.69 1006.15 1006.59 1007.22 1008.17 1008.14 1008.91 1010.62 1011.00 1011.72 1012.27 1012.51 1012.47 1012.36 1011.77 1011.15 1010.90 1010.56 1010.66 1011.42 1012.22 1013.19 1013.89 1013.54 1013.42 1013.06 1013.69 1013.55 1013.98 1013.91 1014.14 1014.69
998.35 998.04 997.53 997.10 996.75 996.84 997.50 998.69 1000.20 1001.84 1003.59 1005.62 1006.31 1007.48 1008.08 1007.59 1006.68 1005.74 1005.64 1006.44 1007.39 1008.77 1009.79 1010.54 1011.60 1012.11 1012.06 1011.87 1011.69 1010.90 1009.96 1009.11 1008.93 1009.69 1011.14 1012.02 1012.98 1013.56 1014.03 1014.10 1014.26 1015.05 1015.47 1015.51 1015.47 1015.80 1015.53
996.99 996.25 995.35 993.98 992.97 992.28 992.29 993.28 995.57 998.11 1000.79 1003.11 1004.57 1006.22 1006.53 1006.84 1006.54 1005.97 1005.88 1005.72 1006.83 1007.99 1009.40 1010.70 1011.56 1011.67 1011.84 1011.56 1010.83 1010.05 1009.11 1008.31 1008.32 1009.02 1009.88 1010.92 1012.06 1012.87 1013.81 1014.63 1015.50 1016.40 1016.78 1016.75 1016.58 1016.47 1016.91
995.69 994.78 993.16 991.74 990.53 988.83 987.83 988.36 990.43 993.79 997.49 1001.57 1003.07 1005.05 1006.65 1007.19 1007.87 1006.78 1006.06 1005.59 1006.75 1007.82 1009.03 1010.19 1009.90 1010.58 1010.87 1010.79 1010.06 1009.50 1008.80 1008.52 1008.54 1009.01 1009.84 1011.08 1011.42 1012.65 1014.61 1015.86 1017.01 1017.74 1017.56 1017.56 1017.49 1018.19 1018.70
Wind_Speed
17 19 18 16 15 15 16 15 14 14 12 11 10 9 9 10 10 9 10 14 18 17 17 17 19 17 12 8 2 8 6 10 10 6 6 8 12 8 11 12 12 16 16 14 11 13 14
11 10 17 18 18 18 17 16 15 15 13 13 12 11 11 10 11 9 9 12 15 18 17 17 16 15 7 14 6 7 3 6 6 6 7 8 7 11 11 13 10 15 13 16 18 18 17
5 9 9 17 18 18 18 15 15 15 14 13 14 12 11 10 9 9 10 12 14 17 18 16 13 8 12 13 2 0 4 5 5 8 8 9 6 8 11 12 8 9 15 18 20 11 5
4 6 8 8 5 14 16 16 15 15 16 16 14 14 11 8 8 8 11 13 15 18 17 13 9 9 8 2 6 3 9 8 6 6 8 8 7 11 14 12 16 15 17 13 11 7 5
6 3 5 6 7 8 6 13 14 15 16 16 15 13 11 8 6 8 10 15 18 17 11 10 8 9 9 2 6 8 4 8 7 10 6 7 7 11 12 12 13 16 13 10 13 13 4
5 5 5 4 4 4 5 5 11 13 15 15 15 14 12 10 5 7 11 17 15 10 11 11 11 9 9 6 6 3 6 5 7 8 9 9 7 10 11 11 11 10 11 12 15 13 14
7 7 7 4 4 5 5 6 8 9 13 14 15 15 14 11 6 3 10 8 5 5 8 9 9 12 5 6 3 8 10 7 11 11 12 15 10 12 17 4 7 10 12 16 16 15 12
7 6 7 7 7 6 6 5 7 8 12 15 16 15 15 11 6 1 5 2 9 5 11 17 20 21 18 7 9 13 7 7 13 14 17 11 14 16 6 3 7 12 15 17 16 13 13
7 7 7 8 7 8 7 6 4 6 8 10 16 17 17 14 8 2 4 3 2 6 7 10 20 20 17 12 15 19 16 12 15 15 16 16 17 5 5 12 14 15 16 15 17 14 16
11 9 8 9 8 8 8 6 4 5 6 3 14 17 18 14 4 8 6 9 3 4 5 11 8 4 12 11 13 20 11 11 13 15 16 15 15 18 12 14 14 15 15 12 14 14 13
10 10 9 8 7 7 7 7 3 3 5 4 11 19 22 14 3 3 7 6 1 4 7 5 10 8 7 11 2 9 6 9 14 16 7 11 8 7 12 14 14 13 12 14 17 18 18
12 12 10 8 8 8 7 8 6 3 4 4 6 20 20 1 2 5 4 4 2 4 12 4 6 6 10 15 12 6 6 9 9 13 18 20 19 8 10 13 6 11 14 17 20 17 14
14 13 12 11 9 9 7 6 6 7 6 5 7 23 16 6 5 6 2 4 2 6 3 8 7 8 14 14 16 13 10 13 10 7 13 18 21 18 11 13 14 16 13 8 6 6 11
16 14 13 12 11 11 9 7 7 9 7 6 14 22 4 1 10 9 3 3 7 11 16 4 5 9 15 13 13 14 15 14 18 14 12 11 7 17 14 14 9 7 6 7 9 10 15
15 15 15 13 13 12 10 9 9 9 8 11 21 3 3 1 8 2 2 5 7 12 15 16 12 15 16 18 9 14 15 17 16 13 7 9 7 4 9 9 5 2 7 4 9 14 12
18 16 16 15 14 13 12 12 10 9 9 24 3 3 4 5 4 4 1 8 14 16 16 16 14 10 13 18 11 8 10 6 18 4 3 5 7 10 9 6 14 14 9 5 1 5 9
19 17 16 16 16 15 14 13 12 10 13 20 3 4 6 7 6 3 7 12 19 19 18 12 12 7 10 6 9 9 9 4 4 6 3 6 2 7 8 11 16 9 12 3 2 6 5
19 19 18 18 17 16 16 15 16 13 20 13 4 4 9 9 4 3 13 11 6 15 14 15 11 14 17 16 16 3 4 13 7 2 5 5 3 7 15 4 5 3 3 4 3 5 4
22 21 21 21 19 18 18 19 19 17 23 5 5 3 7 10 8 11 16 18 20 18 16 17 16 11 2 3 2 6 6 3 8 4 2 2 5 7 11 9 2 5 5 4 6 6 9
24 23 22 20 19 21 21 21 23 21 26 9 4 5 3 6 6 16 22 20 22 14 21 18 10 9 8 5 10 5 9 5 8 6 5 2 7 13 10 6 3 4 2 4 4 4 5
24 25 24 23 23 23 24 23 25 26 29 8 5 7 9 10 14 12 9 10 23 23 21 20 20 19 15 9 12 10 13 11 11 10 2 5 5 10 17 16 8 3 2 6 4 7 6
26 27 26 26 25 25 25 25 27 28 30 13 7 9 14 12 19 23 19 19 22 20 18 21 19 16 18 14 9 8 10 12 7 13 8 11 3 2 13 17 13 7 7 10 6 2 2
27 27 27 28 28 29 28 29 31 32 31 7 9 13 12 14 19 19 23 28 25 18 17 19 19 18 19 14 5 10 11 10 6 10 11 10 3 3 12 7 10 9 15 9 6 7 7
27 27 28 29 31 32 30 33 35 35 36 12 8 11 14 14 16 20 21 28 26 24 21 20 17 15 5 8 4 2 3 3 6 8 7 5 5 4 8 3 6 2 5 10 8 5 6
28 29 31 33 32 32 34 35 35 39 40 16 9 17 14 17 18 24 25 22 24 19 21 15 12 10 8 9 4 4 5 7 13 15 13 9 5 4 5 9 3 4 8 9 9 7 6
29 30 35 35 35 37 39 41 41 43 41 22 17 13 13 13 21 21 22 24 16 14 7 13 9 15 16 6 7 12 8 9 8 8 17 14 12 6 6 10 7 5 7 5 5 6 9
29 33 32 37 41 43 44 45 46 46 46 25 15 20 13 16 16 17 18 18 14 14 11 12 12 7 10 6 8 9 10 10 8 12 6 6 6 10 9 9 4 5 4 4 5 4 6
30 29 31 36 36 39 44 49 54 53 52 35 18 21 16 12 11 17 19 14 13 14 9 12 7 4 5 8 7 6 5 6 2 7 12 10 8 8 10 10 10 3 3 4 5 7 8
18 30 11 6 8 23 39 45 49 54 55 44 13 19 15 9 1 4 9 8 14 12 7 10 7 13 6 6 5 6 3 2 6 4 8 4 2 2 5 4 4 3 4 6 7 10 9
Wind_Direction
235 222 219 214 212 218 218 213 216 212 222 216 214 229 242 262 281 300 316 313 315 316 320 320 317 319 318 255 307 133 183 224 249 278 307 325 305 325 284 323 311 271 274 274 295 281 279
16 259 219 214 215 219 227 218 210 224 210 211 213 211 226 245 269 289 304 308 311 311 313 312 312 317 259 287 82 131 235 263 282 316 313 298 325 315 286 270 272 309 303 292 282 274 264
357 9 349 227 215 220 220 220 214 211 211 212 210 210 214 235 260 285 301 307 305 303 305 303 304 290 281 258 336 163 185 281 301 306 302 311 313 287 321 290 282 300 289 281 261 244 245
336 6 17 12 293 227 224 222 215 211 210 211 207 205 203 215 253 285 302 303 296 296 295 287 295 284 262 113 333 223 264 273 241 263 274 289 295 276 268 281 284 269 259 269 144 242 219
268 335 348 13 15 27 279 238 226 214 210 207 209 195 189 194 236 284 299 296 290 285 275 276 268 214 276 110 226 229 272 282 319 282 268 276 276 258 276 242 277 227 250 234 318 316 331
290 277 302 306 357 354 27 8 243 223 211 206 206 186 180 174 203 291 301 288 289 288 241 247 255 277 226 263 170 226 269 269 271 271 261 235 233 244 226 236 254 334 298 306 295 303 306
270 328 316 279 309 333 342 347 20 259 217 205 201 185 173 173 170 323 314 313 254 202 212 257 307 257 276 194 145 250 256 258 250 247 254 214 241 248 254 237 324 302 284 281 288 288 294
264 282 295 310 310 307 319 330 358 349 234 201 186 183 168 167 146 211 283 298 31 344 299 279 269 263 268 294 267 214 152 245 223 248 241 239 246 252 280 307 273 276 276 272 278 295 315
261 261 280 286 291 293 289 299 350 357 0 207 180 170 162 145 140 244 255 209 27 326 263 272 251 245 233 225 253 248 177 224 250 258 253 245 267 134 260 274 264 262 269 285 294 309 286
256 257 263 278 282 288 293 272 310 356 356 295 187 165 145 133 136 206 207 203 164 262 295 271 224 291 214 197 269 235 181 240 242 251 258 257 261 259 268 252 264 276 279 309 299 300 293
252 256 256 254 265 270 279 250 226 327 337 309 176 154 151 152 324 157 78 89 170 242 286 352 89 72 151 193 55 191 141 229 255 251 215 242 211 226 246 258 270 286 316 293 289 281 282
245 246 248 251 264 265 275 239 206 247 285 266 208 170 156 35 32 99 105 136 341 185 237 242 136 194 200 214 242 145 211 236 282 281 270 261 277 258 264 285 260 277 285 277 265 257 255
250 246 243 242 246 255 251 248 225 226 265 279 247 167 166 148 165 133 105 39 144 235 169 226 213 207 214 224 232 228 216 215 235 223 242 239 237 241 229 259 252 235 265 296 275 292 276
249 244 244 240 243 246 234 232 244 229 244 294 162 156 117 46 134 135 124 89 218 222 249 308 215 222 222 226 223 225 246 240 228 264 287 279 258 206 164 226 287 269 290 271 297 304 301
250 248 246 243 244 236 238 223 232 229 219 117 132 92 91 159 143 173 70 207 243 256 257 260 247 266 228 231 203 226 236 253 256 196 247 329 264 356 148 209 218 304 229 346 292 289 273
251 250 247 245 238 239 235 226 222 226 194 134 115 114 133 145 143 110 140 243 241 248 284 295 255 212 241 221 182 231 239 244 239 113 25 340 295 271 241 210 244 247 285 291 274 277 292
245 247 252 248 244 237 229 225 209 219 158 143 118 151 139 153 102 170 210 227 246 249 254 224 245 271 277 318 250 241 261 353 271 147 245 308 142 300 213 216 250 181 240 289 319 277 286
237 245 249 245 248 240 230 219 208 208 158 146 151 187 159 154 153 201 229 226 277 265 241 229 257 237 223 226 232 179 238 243 205 274 205 249 297 273 264 266 27 314 13 9 290 279 310
237 240 244 243 237 235 228 221 206 201 165 130 149 108 175 176 202 215 235 239 243 252 233 221 218 225 107 118 8 213 224 45 94 174 324 105 242 283 230 227 175 228 67 7 305 282 249
239 240 239 240 243 233 226 220 208 200 179 174 137 139 185 217 266 239 219 233 230 232 243 233 227 200 168 197 196 251 215 204 153 199 47 21 263 267 290 324 265 261 352 310 305 253 302
242 240 237 240 238 234 231 218 211 202 185 172 191 206 175 191 217 227 226 240 221 228 215 213 221 209 199 220 200 216 216 212 195 173 160 235 253 279 293 291 253 243 245 286 281 279 278
243 243 242 242 236 236 227 227 211 204 190 208 174 208 171 233 202 211 227 214 214 220 236 218 219 215 227 223 201 216 215 216 186 190 192 218 252 18 281 264 249 240 186 221 201 147 115
247 245 246 247 245 233 229 226 213 204 193 195 220 218 244 205 202 197 213 225 219 212 217 233 220 235 220 217 255 246 229 209 213 200 196 211 199 219 259 244 223 240 208 210 185 214 194
246 247 249 247 246 238 236 220 210 204 200 207 208 216 207 233 213 207 209 225 224 216 212 218 223 210 215 218 199 14 0 243 223 246 261 175 182 252 286 210 244 55 167 189 188 164 104
247 253 252 255 248 234 225 217 213 208 204 203 201 209 212 219 234 212 207 218 226 228 211 221 193 193 224 155 180 200 220 229 229 230 226 226 176 255 253 267 78 186 215 197 186 189 172
258 261 263 249 243 239 231 223 215 206 200 200 209 217 218 228 223 233 194 215 213 208 145 196 206 226 187 188 211 218 200 207 186 200 204 207 191 224 264 263 286 91 84 35 357 249 175
266 266 258 254 248 240 232 223 214 204 198 197 204 206 208 222 238 245 191 203 188 177 179 170 151 177 195 203 215 232 227 209 203 170 173 175 205 224 240 249 114 69 38 0 224 90 136
258 254 262 256 241 236 230 222 213 203 195 190 195 198 202 205 246 241 211 191 178 183 159 161 147 185 182 220 219 217 249 235 193 199 178 177 193 205 222 241 250 64 138 271 90 97 99
243 258 221 58 298 235 224 219 207 194 188 180 180 184 198 208 172 344 39 149 189 155 144 178 145 167 176 210 236 228 196 296 207 190 155 210 307 130 14 55 84 23 56 92 107 96 91